�������l�o���
Date,Time,MP-1(��Sv/h),MP-2(��Sv/h),MP-3(��Sv/h),MP-4(��Sv/h),MP-5(��Sv/h),MP-6(��Sv/h),MP-7(��Sv/h),MP-8(��Sv/h),����,����(m/s),���J
2017/04/25,00:00,1.025,1.667,1.112,1.994,1.372,0.545,0.997,0.924,��,7.9,��
2017/04/25,00:10,1.025,1.667,1.113,1.989,1.372,0.545,0.997,0.924,��,8.0,��
2017/04/25,00:20,1.027,1.667,1.113,1.990,1.374,0.543,1.000,0.924,��,7.2,��
2017/04/25,00:30,1.026,1.664,1.114,1.990,1.371,0.544,0.998,0.921,��,6.2,��
2017/04/25,00:40,1.025,1.666,1.114,1.991,1.373,0.546,0.997,0.922,��,5.8,��
2017/04/25,00:50,1.026,1.667,1.115,1.993,1.372,0.545,0.996,0.923,��,6.0,��
2017/04/25,01:00,1.025,1.670,1.112,1.987,1.374,0.543,0.999,0.922,��쐼,6.1,��
2017/04/25,01:10,1.024,1.667,1.113,1.990,1.373,0.543,0.997,0.924,��,6.3,��
2017/04/25,01:20,1.025,1.666,1.113,1.989,1.372,0.544,0.997,0.923,��,7.1,��
2017/04/25,01:30,1.025,1.666,1.112,1.990,1.370,0.544,0.999,0.926,��,8.2,��
2017/04/25,01:40,1.025,1.669,1.113,1.989,1.370,0.544,0.997,0.923,��,8.2,��
2017/04/25,01:50,1.024,1.666,1.114,1.990,1.371,0.543,0.997,0.922,��,7.5,��
2017/04/25,02:00,1.023,1.666,1.112,1.990,1.369,0.544,0.997,0.923,��,7.8,��
2017/04/25,02:10,1.026,1.668,1.111,1.990,1.372,0.544,0.998,0.923,��,7.4,��
2017/04/25,02:20,1.022,1.668,1.111,1.989,1.370,0.543,0.996,0.922,��,6.9,��
2017/04/25,02:30,1.025,1.669,1.112,1.988,1.369,0.544,0.995,0.925,��,7.4,��
2017/04/25,02:40,1.024,1.663,1.113,1.988,1.369,0.542,0.997,0.925,��,7.5,��
2017/04/25,02:50,1.023,1.665,1.111,1.987,1.371,0.543,0.996,0.923,��,7.5,��
2017/04/25,03:00,1.024,1.664,1.113,1.988,1.368,0.543,0.998,0.924,��,7.4,��
2017/04/25,03:10,1.027,1.663,1.112,1.987,1.373,0.543,0.995,0.923,��,7.2,��
2017/04/25,03:20,1.024,1.662,1.110,1.988,1.370,0.543,0.998,0.924,��,6.7,��
2017/04/25,03:30,1.025,1.666,1.112,1.990,1.371,0.544,0.999,0.924,��,7.1,��
2017/04/25,03:40,1.025,1.668,1.111,1.987,1.368,0.542,0.998,0.923,��,7.8,��
2017/04/25,03:50,1.025,1.664,1.110,1.987,1.371,0.542,1.000,0.922,��,7.9,��
2017/04/25,04:00,1.022,1.664,1.112,1.985,1.371,0.544,1.000,0.923,��,7.7,��
2017/04/25,04:10,1.023,1.666,1.114,1.989,1.370,0.542,0.999,0.924,��,7.4,��
2017/04/25,04:20,1.025,1.666,1.111,1.987,1.369,0.543,0.998,0.922,��,7.3,��
2017/04/25,04:30,1.025,1.663,1.111,1.985,1.371,0.544,0.998,0.925,��,7.3,��
2017/04/25,04:40,1.024,1.662,1.112,1.988,1.369,0.545,0.997,0.923,��,7.6,��
2017/04/25,04:50,1.025,1.666,1.113,1.988,1.370,0.543,0.999,0.925,��,7.0,��
2017/04/25,05:00,1.025,1.665,1.110,1.985,1.371,0.545,0.998,0.924,��,7.5,��
2017/04/25,05:10,1.022,1.663,1.111,1.989,1.370,0.544,0.998,0.924,��,6.7,��
2017/04/25,05:20,1.023,1.665,1.111,1.990,1.368,0.543,0.997,0.922,��,7.1,��
2017/04/25,05:30,1.024,1.666,1.112,1.986,1.371,0.545,0.996,0.923,��,6.5,��
2017/04/25,05:40,1.024,1.663,1.111,1.988,1.371,0.542,0.997,0.924,��,7.2,��
2017/04/25,05:50,1.025,1.664,1.111,1.988,1.370,0.543,0.998,0.924,��,7.3,��
2017/04/25,06:00,1.023,1.665,1.113,1.987,1.369,0.542,0.998,0.924,��,7.1,��
2017/04/25,06:10,1.026,1.665,1.113,1.987,1.368,0.543,0.997,0.924,��,6.5,��
2017/04/25,06:20,1.026,1.667,1.113,1.988,1.370,0.544,0.996,0.924,��,6.0,��
2017/04/25,06:30,1.026,1.664,1.112,1.989,1.369,0.543,0.998,0.922,��,5.8,��
2017/04/25,06:40,1.024,1.668,1.116,1.988,1.372,0.544,0.999,0.924,��,5.0,��
2017/04/25,06:50,1.027,1.668,1.113,1.991,1.371,0.545,0.999,0.923,��,5.2,��
2017/04/25,07:00,1.025,1.668,1.113,1.990,1.371,0.544,0.998,0.923,��,5.4,��
2017/04/25,07:10,1.026,1.668,1.115,1.990,1.373,0.543,0.998,0.922,��,5.0,��
2017/04/25,07:20,1.028,1.668,1.113,1.991,1.373,0.542,1.000,0.924,��,7.2,��
2017/04/25,07:30,1.024,1.667,1.117,1.992,1.373,0.541,1.000,0.925,��쓌,7.2,��
2017/04/25,07:40,1.026,1.665,1.115,1.993,1.374,0.542,0.999,0.925,��쓌,7.9,��
2017/04/25,07:50,1.023,1.664,1.118,1.996,1.373,0.543,0.999,0.925,��쓌,8.0,��
2017/04/25,08:00,1.024,1.667,1.116,1.993,1.371,0.542,1.000,0.925,��쓌,8.1,��
2017/04/25,08:10,1.024,1.667,1.119,1.997,1.372,0.543,0.999,0.924,��쓌,8.4,��
2017/04/25,08:20,1.028,1.665,1.116,1.992,1.372,0.542,1.001,0.924,��쓌,8.6,��
2017/04/25,08:30,1.028,1.667,1.116,1.991,1.373,0.543,0.999,0.924,��쓌,8.8,��
2017/04/25,08:40,1.027,1.667,1.118,1.993,1.373,0.542,0.999,0.922,��쓌,9.6,��
2017/04/25,08:50,1.028,1.668,1.117,1.994,1.371,0.544,0.998,0.922,��쓌,10.1,��
2017/04/25,09:00,1.026,1.668,1.119,1.995,1.373,0.546,0.997,0.922,��쓌,11.1,��
2017/04/25,09:10,1.027,1.670,1.116,1.997,1.374,0.543,0.999,0.921,��,10.6,��
2017/04/25,09:20,1.027,1.668,1.117,1.996,1.373,0.545,0.999,0.923,��쓌,12.2,��
2017/04/25,09:30,1.028,1.670,1.117,1.998,1.375,0.546,0.998,0.921,��쓌,12.5,��
2017/04/25,09:40,1.025,1.668,1.116,1.998,1.374,0.546,0.999,0.922,��,13.0,��
2017/04/25,09:50,1.028,1.670,1.115,1.997,1.373,0.545,0.997,0.923,��쓌,12.5,��
2017/04/25,10:00,1.026,1.669,1.115,1.996,1.374,0.545,0.998,0.922,��쓌,12.0,��
2017/04/25,10:10,1.028,1.668,1.118,2.000,1.374,0.544,1.001,0.924,��쓌,12.7,��
2017/04/25,10:20,1.028,1.675,1.120,1.998,1.375,0.546,1.000,0.923,��쓌,13.8,��
2017/04/25,10:30,1.028,1.675,1.118,1.999,1.375,0.544,0.999,0.921,��,12.4,��
2017/04/25,10:40,1.031,1.672,1.118,2.002,1.376,0.546,0.999,0.922,��쓌,14.9,��
2017/04/25,10:50,1.030,1.673,1.116,2.001,1.377,0.545,0.999,0.922,��쓌,13.8,��
2017/04/25,11:00,1.029,1.675,1.115,2.000,1.376,0.546,1.000,0.923,��쓌,14.3,��
2017/04/25,11:10,1.027,1.673,1.115,2.000,1.377,0.544,1.001,0.923,��쓌,15.0,��
2017/04/25,11:20,1.030,1.673,1.115,1.997,1.379,0.546,1.001,0.922,��쓌,16.1,��
2017/04/25,11:30,1.029,1.676,1.114,1.998,1.379,0.545,1.003,0.921,��쓌,15.8,-
2017/04/25,11:40,1.029,1.676,1.116,1.998,1.383,0.543,1.001,0.924,��,16.3,��
2017/04/25,11:50,1.030,1.675,1.114,1.998,1.382,0.544,1.000,0.924,��쓌,16.0,��
2017/04/25,12:00,1.029,1.675,1.116,1.996,1.380,0.545,1.002,0.923,��쓌,14.6,��
2017/04/25,12:10,1.031,1.675,1.116,1.997,1.382,0.546,1.002,0.923,��쓌,14.7,��
2017/04/25,12:20,1.031,1.675,1.115,2.000,1.383,0.545,1.001,0.922,��쓌,14.6,��
2017/04/25,12:30,1.030,1.676,1.114,1.996,1.382,0.547,1.002,0.923,��쓌,16.6,��
2017/04/25,12:40,1.029,1.676,1.115,1.997,1.381,0.547,1.003,0.923,��,13.8,��
2017/04/25,12:50,1.032,1.677,1.116,1.999,1.382,0.547,1.002,0.922,��쓌,17.4,��
2017/04/25,13:00,1.034,1.676,1.115,2.002,1.382,0.546,1.002,0.924,��쓌,14.1,��
2017/04/25,13:10,1.032,1.679,1.113,2.003,1.381,0.547,1.003,0.923,��쓌,18.0,��
2017/04/25,13:20,1.034,1.676,1.115,2.001,1.381,0.544,1.002,0.923,��쓌,17.1,��
2017/04/25,13:30,1.033,1.680,1.114,2.004,1.382,0.546,1.002,0.925,��쓌,15.2,��
2017/04/25,13:40,1.030,1.676,1.114,2.003,1.382,0.546,1.001,0.925,��쓌,16.3,��
2017/04/25,13:50,1.032,1.676,1.117,2.008,1.384,0.546,1.002,0.923,��쓌,19.6,��
2017/04/25,14:00,1.033,1.674,1.113,2.002,1.385,0.547,1.002,0.924,��쓌,16.9,��
2017/04/25,14:10,1.033,1.680,1.115,2.000,1.384,0.545,1.001,0.925,��쓌,16.9,��
2017/04/25,14:20,1.034,1.677,1.114,2.000,1.385,0.546,1.002,0.924,��,15.0,��
2017/04/25,14:30,1.033,1.679,1.113,1.999,1.384,0.544,1.002,0.925,��쓌,17.1,��
2017/04/25,14:40,1.033,1.678,1.112,1.996,1.383,0.547,1.001,0.926,��쓌,18.0,��
2017/04/25,14:50,1.032,1.678,1.111,1.997,1.385,0.546,1.004,0.922,��쓌,16.6,��
2017/04/25,15:00,1.033,1.677,1.110,1.998,1.383,0.545,1.002,0.925,��쓌,18.7,��
2017/04/25,15:10,1.034,1.679,1.111,1.999,1.384,0.546,1.004,0.925,��,15.2,��
2017/04/25,15:20,1.034,1.679,1.109,1.999,1.385,0.544,1.003,0.925,��쓌,16.8,��
2017/04/25,15:30,1.031,1.679,1.113,1.995,1.384,0.547,1.003,0.923,��쓌,16.8,��
2017/04/25,15:40,1.033,1.678,1.110,1.999,1.384,0.547,1.002,0.926,��쓌,18.5,��
2017/04/25,15:50,1.033,1.676,1.111,2.002,1.384,0.547,1.002,0.923,��쓌,18.0,��
2017/04/25,16:00,1.034,1.678,1.110,2.001,1.384,0.546,1.004,0.925,��쓌,16.8,��
2017/04/25,16:10,1.032,1.678,1.111,2.001,1.385,0.547,1.002,0.922,��쓌,16.4,��
2017/04/25,16:20,1.032,1.678,1.111,2.002,1.385,0.548,1.002,0.924,��쓌,15.8,��
2017/04/25,16:30,1.030,1.678,1.110,2.003,1.385,0.548,1.002,0.923,��쓌,14.9,��
2017/04/25,16:40,1.034,1.677,1.113,2.003,1.385,0.547,1.003,0.925,��,13.8,��
2017/04/25,16:50,1.034,1.677,1.113,2.002,1.384,0.547,1.003,0.924,��,12.8,��
2017/04/25,17:00,1.036,1.682,1.112,2.000,1.383,0.546,1.004,0.925,��,12.0,��
2017/04/25,17:10,1.034,1.680,1.112,2.002,1.386,0.547,1.003,0.925,��쓌,11.3,��
2017/04/25,17:20,1.032,1.679,1.114,2.001,1.387,0.550,1.001,0.928,��,10.6,��
2017/04/25,17:30,1.035,1.683,1.114,2.003,1.387,0.548,1.003,0.927,��,7.4,��
2017/04/25,17:40,1.038,1.680,1.113,2.002,1.386,0.549,1.005,0.929,��,8.8,��
2017/04/25,17:50,1.038,1.683,1.115,2.004,1.386,0.548,1.003,0.927,��,9.6,��
2017/04/25,18:00,1.038,1.683,1.111,2.008,1.386,0.548,1.003,0.927,��,9.4,��
2017/04/25,18:10,1.039,1.681,1.115,2.004,1.387,0.548,1.003,0.928,��,9.1,��
2017/04/25,18:20,1.036,1.683,1.115,2.005,1.387,0.546,1.001,0.926,��,8.4,��
2017/04/25,18:30,1.036,1.681,1.114,2.005,1.387,0.549,1.003,0.928,��,9.6,��
2017/04/25,18:40,1.035,1.683,1.114,2.005,1.387,0.548,1.003,0.929,��,8.8,��
2017/04/25,18:50,1.036,1.681,1.115,2.006,1.388,0.548,1.001,0.927,��,9.4,��
2017/04/25,19:00,1.039,1.682,1.115,2.004,1.388,0.551,1.003,0.926,��,10.5,��
2017/04/25,19:10,1.036,1.681,1.112,2.005,1.387,0.547,1.001,0.928,��,8.7,��
2017/04/25,19:20,1.035,1.681,1.113,2.007,1.387,0.549,1.004,0.926,��,7.7,��
2017/04/25,19:30,1.037,1.678,1.114,2.005,1.389,0.549,1.004,0.928,��쐼,8.8,��
2017/04/25,19:40,1.036,1.682,1.111,2.005,1.388,0.550,1.003,0.926,��,9.3,��
2017/04/25,19:50,1.038,1.681,1.113,2.007,1.389,0.549,1.002,0.928,��,10.2,��
2017/04/25,20:00,1.037,1.680,1.116,2.006,1.389,0.550,1.004,0.927,��,8.9,��
2017/04/25,20:10,1.036,1.678,1.112,2.005,1.388,0.549,1.004,0.928,��쐼,9.3,��
2017/04/25,20:20,1.039,1.679,1.114,2.004,1.389,0.549,1.003,0.927,��,9.4,��
2017/04/25,20:30,1.036,1.679,1.112,2.005,1.388,0.548,1.003,0.927,��,10.2,��
2017/04/25,20:40,1.036,1.679,1.114,2.005,1.385,0.548,1.004,0.926,��,9.8,��
2017/04/25,20:50,1.036,1.678,1.114,2.005,1.387,0.550,1.003,0.929,��,11.0,��
2017/04/25,21:00,1.036,1.679,1.111,2.006,1.390,0.549,1.004,0.928,��,9.5,��
2017/04/25,21:10,1.034,1.678,1.112,2.007,1.390,0.549,1.004,0.926,��쐼,9.7,��
2017/04/25,21:20,1.034,1.679,1.114,2.007,1.386,0.549,1.004,0.925,��쐼,7.9,��
2017/04/25,21:30,1.035,1.680,1.111,2.004,1.388,0.550,1.004,0.926,��쐼,9.6,��
2017/04/25,21:40,1.035,1.679,1.112,2.007,1.385,0.549,1.004,0.927,��쐼,9.4,��
2017/04/25,21:50,1.035,1.680,1.113,2.005,1.387,0.548,1.005,0.926,��,7.6,��
2017/04/25,22:00,1.034,1.682,1.115,2.005,1.389,0.548,1.002,0.928,��,7.0,��
2017/04/25,22:10,1.031,1.680,1.114,2.005,1.387,0.549,1.006,0.928,��쐼,7.4,��
2017/04/25,22:20,1.036,1.680,1.114,2.005,1.386,0.549,1.004,0.927,��쐼,6.9,��
2017/04/25,22:30,1.032,1.677,1.115,2.002,1.390,0.548,1.004,0.927,��,6.3,��
2017/04/25,22:40,1.035,1.679,1.112,2.004,1.388,0.550,1.006,0.927,��,5.9,��
2017/04/25,22:50,1.035,1.678,1.115,2.004,1.387,0.550,1.006,0.926,��,6.0,��
2017/04/25,23:00,1.034,1.679,1.113,2.005,1.389,0.550,1.004,0.927,��쓌,6.5,��
2017/04/25,23:10,1.034,1.679,1.114,2.002,1.388,0.547,1.003,0.927,��쓌,7.6,��
2017/04/25,23:20,1.033,1.680,1.111,2.005,1.388,0.548,1.005,0.927,��,8.0,��
2017/04/25,23:30,1.034,1.681,1.114,2.004,1.386,0.548,1.004,0.928,��,8.6,��
2017/04/25,23:40,1.033,1.679,1.113,2.007,1.387,0.548,1.005,0.929,��,9.7,��
2017/04/25,23:50,1.034,1.680,1.114,2.003,1.387,0.548,1.006,0.927,��쐼,9.8,��
